Location: Eurasberg
(48.3353°N, 11.0839°E)
Time: 10:22:05
(UTC+00:00)

Cosmos 1408 Rocket - Pass Details

Date: 18 January 2026
Orbit: 594 x 623 km, 82.6° (Epoch: 10 February)

Event Time Altitude Azimuth Distance (km) Brightness Sun altitude
Exits shadow 05:28:05 25° 274° (W) 1,234 4.5 -14.9°
Maximum altitude 05:28:44 26° 289° (WNW) 1,202 4.4 -14.8°
Drops below altitude 10° 05:32:22 10° 347° (NNW) 1,950 5.8 -14.2°
Sets 05:34:53 0° 0° (N) 2,854 6.8 -13.8°
